OpenBCM V1.08-5-g2f4a (Linux)

Packet Radio Mailbox

IZ3LSV

[San Dona' di P. JN]

 Login: GUEST





  
CX2SA  > KEPS     02.11.12 04:13l 221 Lines 5829 Bytes #999 (0) @ WW
BID : ORB12306.W
Read: GUEST
Subj: Orbital Elements  12306.WEATHER
Path: IZ3LSV<IR1UAW<IK1NHL<CX2SA
Sent: 121102/0211Z @:CX2SA.SAL.URY.SA #:3869 [Salto] FBB7.00e $:ORB12306.W
From: CX2SA@CX2SA.SAL.URY.SA
To  : KEPS@AMSAT


HR AMSAT ORBITAL ELEMENTS FOR WEATHER SATELLITES
FROM WA5QGD FORT WORTH,TX November 1, 2012
Send SUBSCRIBE KEPS/UNSUBSCRIBE KEPS to majordomo@amsat.org only
BID: ORB12306.W
TO ALL RADIO AMATEURS BT

Satellite: NOAA-10
Catalog number: 16969
Epoch time:      12306.53453691
Element set:     119
Inclination:      098.5707 deg
RA of node:       333.0695 deg
Eccentricity:    0.0011888
Arg of perigee:   188.7456 deg
Mean anomaly:     171.3525 deg
Mean motion:   14.27590566 rev/day
Decay rate:       1.65e-06 rev/day^2
Epoch rev:           35946
Checksum:              339

Satellite: NOAA-11
Catalog number: 19531
Epoch time:      12306.46763176
Element set:     113
Inclination:      098.7274 deg
RA of node:       028.6979 deg
Eccentricity:    0.0010772
Arg of perigee:   188.4037 deg
Mean anomaly:     171.6941 deg
Mean motion:   14.14987198 rev/day
Decay rate:      -1.78e-06 rev/day^2
Epoch rev:           24392
Checksum:              332

Satellite: NOAA-12
Catalog number: 21263
Epoch time:      12306.54936028
Element set:     594
Inclination:      098.7184 deg
RA of node:       327.5156 deg
Eccentricity:    0.0014066
Arg of perigee:   158.5933 deg
Mean anomaly:     201.5838 deg
Mean motion:   14.25527356 rev/day
Decay rate:        9.3e-07 rev/day^2
Epoch rev:           11612
Checksum:              302

Satellite: MET-3/5
Catalog number: 21655
Epoch time:      12305.81520666
Element set:     540
Inclination:      082.5582 deg
RA of node:       055.6537 deg
Eccentricity:    0.0012682
Arg of perigee:   345.2459 deg
Mean anomaly:     014.8291 deg
Mean motion:   13.17038524 rev/day
Decay rate:       2.86e-06 rev/day^2
Epoch rev:            1987
Checksum:              303

Satellite: MET-2/21
Catalog number: 22782
Epoch time:      12306.90948372
Element set:     569
Inclination:      082.5444 deg
RA of node:       283.2334 deg
Eccentricity:    0.0023845
Arg of perigee:   124.1885 deg
Mean anomaly:     236.1560 deg
Mean motion:   13.83691212 rev/day
Decay rate:        6.8e-07 rev/day^2
Epoch rev:           96821
Checksum:              313

Satellite: OKEAN-4
Catalog number: 23317
Epoch time:      12306.38854154
Element set:      42
Inclination:      082.5384 deg
RA of node:       262.9042 deg
Eccentricity:    0.0019168
Arg of perigee:   259.0484 deg
Mean anomaly:     100.8576 deg
Mean motion:   14.84065330 rev/day
Decay rate:      1.154e-05 rev/day^2
Epoch rev:           97515
Checksum:              296

Satellite: NOAA-14
Catalog number: 23455
Epoch time:      12306.47621622
Element set:      76
Inclination:      098.8220 deg
RA of node:       028.2014 deg
Eccentricity:    0.0008776
Arg of perigee:   289.0493 deg
Mean anomaly:     070.9728 deg
Mean motion:   14.13879096 rev/day
Decay rate:        8.4e-07 rev/day^2
Epoch rev:           92019
Checksum:              313

Satellite: NOAA-15
Catalog number: 25338
Epoch time:      12306.38711696
Element set:     462
Inclination:      098.7032 deg
RA of node:       292.1015 deg
Eccentricity:    0.0011582
Arg of perigee:   071.6412 deg
Mean anomaly:     288.6036 deg
Mean motion:   14.25139185 rev/day
Decay rate:        4.0e-07 rev/day^2
Epoch rev:           75239
Checksum:              292

Satellite: RESURS
Catalog number: 25394
Epoch time:      12305.89812593
Element set:     221
Inclination:      098.3340 deg
RA of node:       287.0367 deg
Eccentricity:    0.0001065
Arg of perigee:   155.2154 deg
Mean anomaly:     204.9078 deg
Mean motion:   14.24305735 rev/day
Decay rate:       1.00e-06 rev/day^2
Epoch rev:           74386
Checksum:              281

Satellite: FENGYUN1
Catalog number: 25730
Epoch time:      12306.90764478
Element set:     730
Inclination:      098.8555 deg
RA of node:       263.5841 deg
Eccentricity:    0.0020982
Arg of perigee:   330.8355 deg
Mean anomaly:     029.1631 deg
Mean motion:   14.09815837 rev/day
Decay rate:       8.90e-06 rev/day^2
Epoch rev:           69401
Checksum:              316

Satellite: OKEAN-0
Catalog number: 25860
Epoch time:      12305.95231869
Element set:     775
Inclination:      097.9547 deg
RA of node:       265.9472 deg
Eccentricity:    0.0001423
Arg of perigee:   104.6668 deg
Mean anomaly:     255.4692 deg
Mean motion:   14.74370401 rev/day
Decay rate:       8.19e-06 rev/day^2
Epoch rev:           71472
Checksum:              324

Satellite: NOAA-16
Catalog number: 26536
Epoch time:      12306.29027342
Element set:     953
Inclination:      099.0778 deg
RA of node:       350.4216 deg
Eccentricity:    0.0011190
Arg of perigee:   060.0993 deg
Mean anomaly:     300.1290 deg
Mean motion:   14.12799008 rev/day
Decay rate:       -7.5e-07 rev/day^2
Epoch rev:           62439
Checksum:              291

Satellite: NOAA-17
Catalog number: 27453
Epoch time:      12306.27463480
Element set:     893
Inclination:      098.3260 deg
RA of node:       326.3250 deg
Eccentricity:    0.0012641
Arg of perigee:   112.7828 deg
Mean anomaly:     247.4687 deg
Mean motion:   14.24501843 rev/day
Decay rate:        4.0e-07 rev/day^2
Epoch rev:           53827
Checksum:              297

Satellite: NOAA-18
Catalog number: 28654
Epoch time:      12306.35304188
Element set:     374
Inclination:      099.0660 deg
RA of node:       265.7093 deg
Eccentricity:    0.0014787
Arg of perigee:   126.9642 deg
Mean anomaly:     233.2893 deg
Mean motion:   14.11723869 rev/day
Decay rate:        6.3e-07 rev/day^2
Epoch rev:           38391
Checksum:              327

Satellite: NOAA-19
Catalog number: 33591
Epoch time:      12306.39176761
Element set:     562
Inclination:      098.8768 deg
RA of node:       244.5545 deg
Eccentricity:    0.0014219
Arg of perigee:   356.8489 deg
Mean anomaly:     003.2609 deg
Mean motion:   14.11411999 rev/day
Decay rate:       5.64e-06 rev/day^2
Epoch rev:           19236
Checksum:              337



Read previous mail | Read next mail


 01.07.2025 07:55:16lGo back Go up